Regional Weather Roundup
Issued by NWS Charleston, SC

Current Version | Previous Version | Graphics & Text | Print | Product List | Glossary On
Versions: 1 2 3 4 5 6 7 8 9 10 11 12 13 14 15 16 17 18 19 20 21 22 23 24 25 26 27 28 29 30 31 32 33 34 35 36 37 38 39 40 41 42 43 44 45 46 47 48 49 50
000 ASUS42 KCHS 281725 RWRCHS REGIONAL WEATHER ROUNDUP NATIONAL WEATHER SERVICE CHARLESTON SC 1200 PM EST FRI NOV 28 2014 NOTE: "FAIR" INDICATES FEW OR NO CLOUDS BELOW 12,000 FEET WITH NO SIGNIFICANT WEATHER AND/OR OBSTRUCTIONS TO VISIBILITY. NOT ALL STATIONS ARE QUALITY CONTROLLED BY THE NATIONAL WEATHER SERVICE. USE DATA WITH CAUTION...ESPECIALLY DEWPOINT OBSERVATIONS. SCZ027-030-031-034>040-042>050-281800- ...SOUTHEAST SOUTH CAROLINA... CITY SKY/WX TMP DP RH WIND PRES REMARKS N CHARLESTON SUNNY 47 21 35 N9 30.37F WATERFRONT PRK N/A 45 N/A N/A N10 N/A MOUNT PLEASANT FAIR 46 23 39 NW8 30.37F JOHNS ISLAND SUNNY 48 28 46 N3 30.37F PINOPOLIS N/A 43 25 49 VRB7 30.30F MONCKS CORNER FAIR 46 28 49 N8 30.38F SUMMERVILLE FAIR 46 27 46 NW8 30.38F BEAUFORT MCAS SUNNY 47 25 42 NE6 30.39F BEAUFORT ARPT FAIR 46 30 53 NE12 30.38F HILTON HEAD IS SUNNY 46 30 53 N13 30.39F WALTERBORO SUNNY 46 18 31 NW6 30.38F ALLENDALE FAIR 45 23 42 NW7 30.37F ...SOUTHERN MIDLANDS AND PEE DEE... CITY SKY/WX TMP DP RH WIND PRES REMARKS GEORGETOWN NOT AVBL KINGSTREE NOT AVBL ORANGEBURG SUNNY 45 20 36 N6 30.38F BARNWELL FAIR 46 27 46 CALM 30.38F AIKEN FAIR 43 21 42 CALM 30.39F MANNING NOT AVBL COLUMBIA SUNNY 45 21 38 NW5 30.38F SUMTER SUNNY 44 20 38 NE5 30.36F FLORENCE SUNNY 44 20 38 NW9 30.37F MYRTLE BEACH SUNNY 45 19 36 N12G18 30.35F N MYRTLE BEACH SUNNY 46 21 37 NE10 30.34F $$ GAZ063-065-086>088-099>101-113>116-118-119-134>141-150-281800- ...SOUTHEAST GEORGIA... CITY SKY/WX TMP DP RH WIND PRES REMARKS SAVANNAH ARPT SUNNY 50 25 37 N8 30.39F HUNTER AAF SUNNY 47 26 43 VRB7 30.37F FORT STEWART SUNNY 48 27 44 N5 30.38F STATESBORO NOT AVBL SYLVANIA SUNNY 48 29 48 CALM 30.38F CLAXTON NOT AVBL ...CSRA...CENTRAL AND FAR SOUTHEAST GEORGIA... CITY SKY/WX TMP DP RH WIND PRES REMARKS THOMSON SUNNY 46 31 56 CALM 30.41F AUGUSTA-BUSH SUNNY 46 22 38 MISG 30.40F AUGUSTA-DANIEL SUNNY 44 20 38 CALM 30.39F SWAINSBORO FAIR 46 30 53 CALM 30.39F VIDALIA SUNNY 46 30 53 CALM 30.37F HAZLEHURST FAIR 48 30 49 CALM 30.37F ALMA SUNNY 48 27 44 MISG 30.38F WAYCROSS SUNNY 51 32 48 NE7 30.38F JESUP FAIR 50 32 50 N6 30.38F BAXLEY FAIR 48 30 49 NE3 30.37F BRUNSWICK SUNNY 50 30 46 NE9 30.38F SAINT SIMONS SUNNY 49 32 52 NE15 30.38F $$ SCZ027-028-034-036>038-045-046-048>050-GAZ119-141-281800- ...LAKE AND SUPPLEMENTAL COASTAL OBSERVATIONS... STATION/POSITION TIME TEMP WIND PRES WAVE SWELL AIR SEA DIR/SP/G HT/PER HT/PER/DIR (UTC) (F) (DEG/KT/KT) (MB) (FT/S) (FT/S/D) UPR LAKE MARION NOT AVBL WINYAH BAY 1700 44 20/ 7 1028.0S LAKE MURRAY 1600 42 120/ 2/ 5 1028.8F ACE BASIN NERRS 1700 47 10/ 3 1029.0S FORT PULASKI 1700 44 50/ 8/ 11 1029.1F SAPELO ISLAND 1700 49 30/ 7 1029.0S $$ ANZ835-935-AMZ111-154-330-350-352-354-370-450-454-472-281800- ...C-MAN AND BUOY OBSERVATIONS... STATION/POSITION TIME TEMP WIND PRES WAVE SWELL AIR SEA DIR/SP/G HT/PER HT/PER/DIR (UTC) (F) (DEG/KT/KT) (MB) (FT/S) (FT/S/D) BUOY 41004 1700 47 72 360/ 16/ 25 1027.2F 6/ 7 2/ 9 BUOY 41008 1700 47 63 20/ 14/ 17 1028.3F 4/ 5 2/120/ 9 FOLLY BEACH CMAN 1700 45 10/ 6/ 8 1028.9F CAPERS NEARSHORE 1600 43 40/ 14/ 17 N/A FRIPP NEARSHORE NOT AVBL STATION/POSITION TIME TEMP WIND PRES WAVE SWELL AIR SEA DIR/SP/G HT/PER HT/PER/DIR (UTC) (F) (DEG/KT/KT) (MB) (FT/S) (FT/S/D) 5E ST. MARYS GA 1700 61 N/A 4/ 6 FRYING PAN BUOY 1700 44 68 20/ 16/ 21 1027.0F 6/ 6 2/110/ 9 BUOY 41025 NOT AVBL CAPE LOOKOUT NC 1700 42 10/ 12/ 16 1026.0F BUOY 41002 1650 58 72 340/ 16/ 25 1022.3F 10/ 9 BUOY 41010 1700 65 77 350/ 16/ 19 1023.0F 7/ 8 5/340/ 8 ST AUGUSTINE FL 1700 50 360/ 17/ 19 1028.0F $$

USA.gov is the U.S. government's official web portal to all federal, state and local government web resources and services.